Appleton, WI

10:59 PM CDT on June 24, 2017 (GMT -0500)
Outagamie County Regional

Weather History for KATW - April, 2013

Change the Weather History Date:

Sunday, April 21, 2013

  Actual Average Record
Temperature  
Mean Temperature 36 °F -  
Max Temperature 41 °F 59 °F 105 °F (2011)
Min Temperature 30 °F 39 °F 25 °F (1988)
Degree Days  
Heating Degree Days 30    
Moisture  
Dew Point 26 °F    
Average Humidity 70    
Maximum Humidity 87    
Minimum Humidity 49    
Precipitation  
Precipitation 0.00 in - - ()
Sea Level Pressure  
Sea Level Pressure 30.37 in    
Wind  
Wind Speed 10 mph (SSE)    
Max Wind Speed 18 mph    
Max Gust Speed 25 mph    
Visibility 9 miles    
Events Snow    
Averages and records for this station are not official NWS values.
T = Trace of Precipitation, MM = Missing Value Source: NWS Daily Summary

Daily Weather History Graph

Daily Weather History Graph

Search for Another Location

Airport or City:

Trip Planner

Search our weather history database for the weather conditions in past years. The results will help you decide how hot, cold, wet, or windy it might be!

Date:

Astronomy

Apr. 21, 2013 Rise Set
Actual Time 6:00 AM CDT 7:46 PM CDT
Civil Twilight 5:29 AM CDT 8:17 PM CDT
Nautical Twilight 4:51 AM CDT 8:54 PM CDT
Astronomical Twilight 4:11 AM CDT 9:35 PM CDT
Moon 3:22 PM CDT (4/21) 3:32 AM CDT (4/21)
Length of Visible Light 14h 47m
Length of Day
13h 46m
Waxing Gibbous, 80% of the Moon is Illuminated
Apr 21
Waxing Gibbous
Apr 25
Full
May 2
Last Quarter
May 9
New
May 17
First Quarter

Hourly Weather History & Observations

Time (CDT) Temp. Windchill Dew Point Humidity Pressure Visibility Wind Dir Wind Speed Gust Speed Precip Events Conditions
12:15 AM 32.0 °F 25.6 °F 26.6 °F 80% 30.39 in 10.0 mi SSE 6.9 mph - N/A   Clear
12:35 AM 30.2 °F 23.4 °F 26.6 °F 86% 30.40 in 10.0 mi SSE 6.9 mph - N/A   Clear
12:55 AM 30.2 °F 24.3 °F 24.8 °F 80% 30.40 in 10.0 mi SSE 5.8 mph - N/A   Clear
1:15 AM 30.2 °F 25.4 °F 24.8 °F 80% 30.41 in 10.0 mi SSE 4.6 mph - N/A   Clear
1:35 AM 30.2 °F 24.3 °F 24.8 °F 80% 30.41 in 10.0 mi SE 5.8 mph - N/A   Clear
4:15 AM 32.0 °F 25.6 °F 26.6 °F 80% 30.43 in 10.0 mi SSE 6.9 mph - N/A   Clear
4:35 AM 32.0 °F 25.6 °F 26.6 °F 80% 30.44 in 10.0 mi SSE 6.9 mph - N/A   Clear
4:55 AM 32.0 °F 26.4 °F 26.6 °F 80% 30.44 in 10.0 mi SSE 5.8 mph - N/A   Clear
5:15 AM 30.2 °F 23.4 °F 26.6 °F 86% 30.44 in 10.0 mi SSE 6.9 mph - N/A   Scattered Clouds
5:45 AM 32.0 °F 25.6 °F 26.6 °F 80% 30.45 in 10.0 mi SSE 6.9 mph - N/A   Mostly Cloudy
6:45 AM 33.8 °F 27.0 °F 26.6 °F 75% 30.46 in 10.0 mi SE 8.1 mph - N/A   Mostly Cloudy
7:45 AM 33.8 °F 24.8 °F 24.8 °F 70% 30.49 in 10.0 mi SSE 12.7 mph - N/A   Mostly Cloudy
8:45 AM 35.6 °F 25.5 °F 24.8 °F 65% 30.49 in 10.0 mi NE 17.3 mph - N/A   Overcast
9:45 AM 37.4 °F 27.8 °F 23.0 °F 56% 30.49 in 10.0 mi South 17.3 mph - N/A   Overcast
10:45 AM 37.4 °F 28.5 °F 26.6 °F 65% 30.49 in 7.0 mi SSE 15.0 mph - N/A   Overcast
12:45 PM 39.2 °F 29.8 °F 23.0 °F 52% 30.44 in 7.0 mi SSE 18.4 mph 25.3 mph N/A   Overcast
1:10 PM 37.4 °F 27.5 °F 26.6 °F 65% 30.43 in 5.0 mi South 18.4 mph 25.3 mph N/A Snow Light Snow
1:45 PM 33.8 °F 24.3 °F 30.2 °F 87% 30.41 in 5.0 mi SSE 13.8 mph 23.0 mph N/A Snow Light Snow
3:45 PM 33.8 °F 23.9 °F 30.2 °F 87% 30.36 in 7.0 mi ESE 15.0 mph 19.6 mph N/A   Overcast
5:45 PM 41.0 °F 32.2 °F 23.0 °F 49% 30.30 in 10.0 mi SE 18.4 mph - N/A   Mostly Cloudy
6:45 PM 39.2 °F 30.5 °F 24.8 °F 56% 30.27 in 10.0 mi SSE 16.1 mph 21.9 mph N/A   Overcast
7:45 PM 39.2 °F 30.8 °F 26.6 °F 61% 30.26 in 10.0 mi SE 15.0 mph 21.9 mph N/A   Overcast
8:45 PM 39.2 °F 30.5 °F 24.8 °F 56% 30.26 in 10.0 mi SSE 16.1 mph - N/A   Overcast
9:45 PM 39.2 °F 30.8 °F 26.6 °F 61% 30.26 in 10.0 mi SSE 15.0 mph 21.9 mph N/A   Overcast
10:45 PM 39.2 °F 30.5 °F 26.6 °F 61% 30.24 in 10.0 mi SSE 16.1 mph - N/A   Overcast
10:55 PM 39.2 °F 32.0 °F 28.4 °F 65% 30.24 in 10.0 mi SSE 11.5 mph - N/A   Mostly Cloudy
11:15 PM 39.2 °F 31.6 °F 28.4 °F 65% 30.24 in 10.0 mi SSE 12.7 mph - N/A   Mostly Cloudy
11:35 PM 41.0 °F 32.8 °F 28.4 °F 61% 30.24 in 10.0 mi SSE 16.1 mph - N/A   Overcast
11:55 PM 41.0 °F 33.5 °F 28.4 °F 61% 30.24 in 10.0 mi South 13.8 mph 18.4 mph N/A   Overcast